CW8081 Thessaloniki GR current weather conditions

sailwx.info

Wind from 167 at 0 knots gusting 12

Air temperature 25.6° C
Dewpoint 9.0° C

Last reported at 2015-Apr-18 15:41 UTC.
Time now 2015-Apr-18 16:43 UTC

Location: N 40°34' E 022°58'.
View on Google Maps.

See reports from other nearby stations

  
Tides and Currents Weather Stations Pressure Air Temp Water Temp Dewpoint Dewpoint Depression Visibility Wind Speed Wind Dir Waves Ship Positions
date/time (UTC)wind fromknots sea level pressurealtimeterstation pressurevisibilityair tempwater tempwave heightnotes
2015-Apr-18 15:41 167 0 gusting 12 25.6
2015-Apr-18 15:31 126 0 gusting 10 25.6
2015-Apr-18 15:11 127 6 gusting 12 26.1
2015-Apr-18 15:01 113 4 gusting 13 26.1
2015-Apr-18 14:41 138 2 gusting 11 26.7
2015-Apr-18 14:31 137 2 gusting 11 26.7
2015-Apr-18 14:11 140 4 gusting 11 26.7
2015-Apr-18 14:01 155 4 gusting 13 26.7
2015-Apr-18 13:41 161 5 gusting 17 26.1
2015-Apr-18 13:31 162 7 gusting 15 26.7
2015-Apr-18 13:11 150 6 gusting 13 26.7
2015-Apr-18 13:01 177 8 gusting 15 26.7
2015-Apr-18 12:41 205 6 gusting 12 26.1
2015-Apr-18 12:31 147 6 gusting 13 26.1
2015-Apr-18 12:11 193 5 gusting 11 26.1
2015-Apr-18 12:01 167 5 gusting 11 26.1
2015-Apr-18 11:41 165 1 gusting 11 26.1
2015-Apr-18 11:31 214 2 gusting 15 26.1
2015-Apr-18 11:11 188 3 gusting 11 26.1
2015-Apr-18 11:01 150 3 gusting 12 26.1
2015-Apr-18 10:41 152 2 gusting 8 26.1
2015-Apr-18 10:31 151 1 gusting 11 26.1
2015-Apr-18 10:11 142 4 gusting 10 26.1
2015-Apr-18 10:01 146 2 gusting 10 26.1
2015-Apr-18 09:41 153 2 gusting 7 25.6
2015-Apr-18 09:31 130 1 gusting 8 25.0
2015-Apr-18 09:11 169 24.4
2015-Apr-18 09:01 205 0 gusting 6 24.4
2015-Apr-18 08:41 173 0 gusting 6 23.3
2015-Apr-18 08:31 154 23.3
2015-Apr-18 08:11 194 22.2
2015-Apr-18 08:01 194 21.7
2015-Apr-18 07:41 193 5 gusting 6 21.7
2015-Apr-18 07:31 186 21.7
2015-Apr-18 07:11 184 20.6
2015-Apr-18 07:01 047 19.4
2015-Apr-18 06:41 046 17.8
2015-Apr-18 06:31 046 17.2
2015-Apr-18 06:11 046 16.1
2015-Apr-18 06:01 046 15.6
2015-Apr-18 05:41 046 14.4
2015-Apr-18 05:31 046 13.9
2015-Apr-18 05:11 047 13.9
2015-Apr-18 05:01 046 13.3
2015-Apr-18 04:41 048 13.3
2015-Apr-18 04:31 048 1 gusting 2 13.3
2015-Apr-18 04:11 049 13.3
2015-Apr-18 04:01 049 13.3
2015-Apr-18 03:41 047 13.9
2015-Apr-18 03:31 049 2 gusting 5 13.9
2015-Apr-18 03:11 090 13.9
2015-Apr-18 03:01 089 1 gusting 5 13.9
2015-Apr-18 02:41 063 5 gusting 6 14.4
2015-Apr-18 02:31 257 14.4
2015-Apr-18 02:11 340 14.4
2015-Apr-18 02:01 340 14.4
2015-Apr-18 01:41 340 14.4
2015-Apr-18 01:31 340 1 gusting 4 14.4
2015-Apr-18 01:11 311 14.4
2015-Apr-18 01:01 311 14.4
2015-Apr-18 00:41 311 14.4
2015-Apr-18 00:31 311 14.4
2015-Apr-18 00:11 298 0 gusting 4 13.9
2015-Apr-18 00:01 234 13.9
2015-Apr-17 23:41 265 13.9
2015-Apr-17 23:31 264 13.9
2015-Apr-17 23:11 263 14.4
2015-Apr-17 23:01 264 15.0
2015-Apr-17 22:41 264 15.0
2015-Apr-17 22:31 263 15.0
2015-Apr-17 22:11 263 15.0
2015-Apr-17 22:01 263 15.6
2015-Apr-17 21:41 263 15.6
2015-Apr-17 21:31 263 15.6
2015-Apr-17 21:11 317 0 gusting 4 15.6
2015-Apr-17 21:01 022 16.1
2015-Apr-17 20:41 020 16.1
2015-Apr-17 20:31 021 16.1
2015-Apr-17 20:11 021 16.7
2015-Apr-17 20:01 021 16.7
2015-Apr-17 19:41 037 0 gusting 4 16.7
2015-Apr-17 19:31 037 0 gusting 6 16.7
2015-Apr-17 19:11 313 17.2
2015-Apr-17 19:01 313 17.2
2015-Apr-17 18:41 313 17.2
2015-Apr-17 18:31 043 6 gusting 7 17.2
2015-Apr-17 18:11 313 0 gusting 4 17.8
2015-Apr-17 18:01 286 17.8
2015-Apr-17 17:41 286 0 gusting 2 17.8
2015-Apr-17 17:31 286 18.3
2015-Apr-17 17:11 286 0 gusting 4 18.3
2015-Apr-17 17:01 286 0 gusting 6 18.9
2015-Apr-17 16:41 267 1 gusting 6 20.0
2015-Apr-17 16:31 224 3 gusting 7 20.6
2015-Apr-17 16:11 201 4 gusting 10 21.1
2015-Apr-17 16:01 216 4 gusting 8 21.7
2015-Apr-17 15:41 200 2 gusting 6 22.2
2015-Apr-17 15:31 204 4 gusting 10 22.2
2015-Apr-17 15:11 198 6 gusting 10 24.4
2015-Apr-17 15:01 163 25.6
2015-Apr-17 14:41 168 2 gusting 8 25.6
2015-Apr-17 14:31 154 25.0
2015-Apr-17 14:11 165 6 gusting 10 25.0
2015-Apr-17 14:01 191 5 gusting 10 25.0
2015-Apr-17 13:41 179 3 gusting 10 24.4
2015-Apr-17 13:31 206 5 gusting 12 25.0
2015-Apr-17 13:11 165 6 gusting 11 24.4
2015-Apr-17 13:01 212 5 gusting 12 24.4
2015-Apr-17 12:41 185 6 gusting 11 23.9
2015-Apr-17 12:31 209 7 gusting 11 23.9
2015-Apr-17 12:11 205 5 gusting 7 23.9
2015-Apr-17 12:01 221 24.4
2015-Apr-17 11:41 219 0 gusting 6 23.9
2015-Apr-17 11:31 228 23.9
2015-Apr-17 11:11 216 22.8
2015-Apr-17 11:01 248 4 gusting 7 22.2
2015-Apr-17 10:41 225 22.8
2015-Apr-17 10:31 225 22.8
2015-Apr-17 10:11 226 21.7
2015-Apr-17 10:01 247 4 gusting 7 21.1
2015-Apr-17 09:41 238 3 gusting 7 20.0
2015-Apr-17 09:31 248 4 gusting 6 20.0
2015-Apr-17 09:11 220 4 gusting 6 20.0
2015-Apr-17 09:01 232 1 gusting 7 20.0
2015-Apr-17 08:41 223 21.1
2015-Apr-17 08:31 223 20.0
2015-Apr-17 08:11 230 18.9
2015-Apr-17 08:01 233 18.9
2015-Apr-17 07:41 232 17.2
2015-Apr-17 07:31 232 16.7
2015-Apr-17 07:11 227 16.1
2015-Apr-17 07:01 231 2 gusting 5 15.6
2015-Apr-17 06:41 257 15.0
2015-Apr-17 06:31 262 14.4
2015-Apr-17 06:11 279 13.9
2015-Apr-17 06:01 005 13.3
2015-Apr-17 05:41 015 12.2
2015-Apr-17 05:31 015 11.7
2015-Apr-17 05:11 015 11.1
2015-Apr-17 05:01 015 11.1
2015-Apr-17 04:41 015 10.6
2015-Apr-17 04:31 015 10.6
2015-Apr-17 04:11 015 10.6
2015-Apr-17 04:01 015 10.6
2015-Apr-17 03:41 015 10.6
2015-Apr-17 03:31 015 10.6
2015-Apr-17 03:11 015 2 gusting 4 10.6
2015-Apr-17 03:01 015 10.6
2015-Apr-17 02:41 015 10.6
2015-Apr-17 02:31 015 10.6
2015-Apr-17 02:11 015 10.6
2015-Apr-17 02:01 015 11.1
2015-Apr-17 01:41 015 10.6
2015-Apr-17 01:31 015 11.1
2015-Apr-17 01:11 012 11.1
2015-Apr-17 01:01 012 11.1
2015-Apr-17 00:41 012 11.7
2015-Apr-17 00:31 011 11.7
2015-Apr-17 00:11 012 12.2
2015-Apr-17 00:01 011 12.2
2015-Apr-16 23:41 012 12.8
2015-Apr-16 23:31 012 12.2
2015-Apr-16 23:11 012 12.8
2015-Apr-16 23:01 011 12.8
2015-Apr-16 22:41 011 13.3
2015-Apr-16 22:31 011 13.3
2015-Apr-16 22:11 011 13.9
2015-Apr-16 22:01 011 13.9
2015-Apr-16 21:41 009 2 gusting 5 14.4
2015-Apr-16 21:31 327 0 gusting 4 14.4
2015-Apr-16 21:11 327 14.4
2015-Apr-16 21:01 327 14.4
2015-Apr-16 20:41 327 14.4
2015-Apr-16 20:31 327 14.4
2015-Apr-16 20:11 322 14.4
2015-Apr-16 20:01 322 15.0
2015-Apr-16 19:41 322 15.6
2015-Apr-16 19:31 322 15.6
2015-Apr-16 19:11 322 16.1
2015-Apr-16 19:01 321 0 gusting 6 16.1
2015-Apr-16 18:41 355 0 gusting 5 16.7
2015-Apr-16 18:31 020 2 gusting 5 16.7
2015-Apr-16 18:11 342 1 gusting 5 17.2
2015-Apr-16 18:01 198 17.2
2015-Apr-16 17:41 198 17.8
2015-Apr-16 17:31 198 17.8
2015-Apr-16 17:11 198 0 gusting 2 18.3
2015-Apr-16 17:01 198 1 gusting 4 18.9
2015-Apr-16 16:41 199 3 gusting 5 19.4
2015-Apr-16 16:31 198 3 gusting 10 19.4
2015-Apr-16 16:11 196 3 gusting 6 21.1
2015-Apr-16 16:01 149 0 gusting 7 21.1